Retour au catalogue

AYAME 1

ECS 1

ActifCommunicationsHEO
NORAD 11261·PAYLOAD·🇯🇵 Japan

Lancé Feb 6, 1979 depuis Tanegashima Space Center

Loading…

Prochains Passages (prochaines 24 heures)

TLE

FraisSource: Space-Track

Époque: Sep 14, 2026, 06:19 UTC

1 11261U 79009A   26257.26355091 -.00000100  00000-0  00000-0 0  9991
2 11261   9.4721 298.9946 3677525 151.6505 256.9933  1.68584184177660

Suivez AYAME 1 en temps réel avec AllMySat

Download on the App Store